Location: Unspecified
(0.0000°N, 0.0000°E)
Time: 23:34:50
(UTC+02:00)

OPAL - Visible Passes

Search period start: 21 October 2014 00:00
Search period end: 30 October 2014 23:00
Orbit: 744 x 797 km, 100.2° (Epoch: 21 October)

Date Brightness Start Highest point End Pass type
(mag) Time Alt. Az. Time Alt. Az. Time Alt. Az.
21 Oct 10.0 05:59:50 10° SE 06:03:42 21° ENE 06:07:32 10° NNE visible
22 Oct 7.6 07:02:00 10° S 07:07:11 68° WSW 07:12:20 10° NNW visible
23 Oct 8.7 06:27:07 10° SSE 06:32:04 44° ENE 06:36:57 10° N visible
24 Oct 10.3 05:53:47 10° ESE 05:56:56 16° ENE 06:00:04 10° NE visible
24 Oct 10.6 20:05:16 10° NW 20:07:08 12° WNW 20:09:00 10° W visible
25 Oct 7.6 06:55:11 10° SSE 07:00:25 87° WSW 07:05:36 10° NNW visible
26 Oct 9.2 05:20:37 10° SE 05:25:17 34° ENE 05:29:55 10° NNE visible
27 Oct 10.4 04:48:08 10° E 04:50:10 12° ENE 04:52:12 10° NE visible
28 Oct 7.8 05:48:27 10° SSE 05:53:39 73° ENE 05:58:47 10° N visible
29 Oct 9.6 05:14:13 10° SE 05:18:31 26° ENE 05:22:45 10° NNE visible
30 Oct 7.7 06:16:56 10° S 06:22:00 53° WSW 06:27:00 10° NNW visible
